Metropolis, IL

6:18 PM CDT on April 28, 2017 (GMT -0500)
Metropolis

Weather History for KM30 - March, 2014

Change the Weather History Date:

Saturday, March 8, 2014

  Actual Average (KPAH) Record (KPAH)
Temperature  
Mean Temperature 42 °F -  
Max Temperature 53 °F 55 °F 79 °F (1974)
Min Temperature 30 °F 34 °F 10 °F (1943)
Degree Days  
Heating Degree Days 24    
Moisture  
Dew Point 35 °F    
Average Humidity 82    
Maximum Humidity 99    
Minimum Humidity 59    
Precipitation  
Precipitation 0.00 in - - ()
Sea Level Pressure  
Sea Level Pressure 30.12 in    
Wind  
Wind Speed 3 mph (WNW)    
Max Wind Speed 14 mph    
Max Gust Speed 18 mph    
Visibility 5 miles    
Events Rain    
Averages and records for this station are not official NWS values.
T = Trace of Precipitation, MM = Missing Value Source: NWS Daily Summary

Daily Weather History Graph

Daily Weather History Graph

Search for Another Location

Airport or City:

Trip Planner

Search our weather history database for the weather conditions in past years. The results will help you decide how hot, cold, wet, or windy it might be!

Date:

Astronomy

Mar. 08, 2014 Rise Set
Actual Time 6:16 AM CST 5:55 PM CST
Civil Twilight 5:50 AM CST 6:21 PM CST
Nautical Twilight 5:20 AM CST 6:51 PM CST
Astronomical Twilight 4:49 AM CST 7:22 PM CST
Moon 11:05 AM CST (3/8) 12:45 AM CST (3/8)
Length of Visible Light 12h 31m
Length of Day
11h 39m
First Quarter, 52% of the Moon is Illuminated
Mar 8
First Quarter
Mar 16
Full
Mar 23
Last Quarter
Mar 30
New
Apr 7
First Quarter

Hourly Weather History & Observations

Time (CST) Temp. Windchill Dew Point Humidity Pressure Visibility Wind Dir Wind Speed Gust Speed Precip Events Conditions
12:15 AM 32.4 °F - 28.9 °F 87% 30.01 in 7.0 mi Calm Calm - N/A   Clear
12:35 AM 32.7 °F - 29.5 °F 88% 30.02 in 7.0 mi Calm Calm - N/A   Clear
12:55 AM 32.4 °F - 29.3 °F 88% 30.03 in 5.0 mi Calm Calm - N/A   Clear
1:15 AM 31.6 °F - 28.6 °F 88% 30.03 in 5.0 mi Calm Calm - N/A   Clear
1:35 AM 31.6 °F - 30.4 °F 95% 30.03 in 5.0 mi Calm Calm - N/A   Clear
1:55 AM 31.1 °F - 30.4 °F 97% 30.03 in 4.0 mi Calm Calm - N/A   Clear
2:15 AM 31.1 °F - 30.2 °F 96% 30.03 in 4.0 mi Calm Calm - N/A   Clear
2:35 AM 31.5 °F - 30.6 °F 96% 30.03 in 4.0 mi Calm Calm - N/A   Clear
2:55 AM 31.5 °F - 30.2 °F 95% 30.03 in 4.0 mi Calm Calm - N/A   Clear
3:15 AM 31.3 °F - 30.0 °F 95% 30.03 in 4.0 mi Calm Calm - N/A   Clear
3:35 AM 31.5 °F - 30.2 °F 95% 30.03 in 4.0 mi Calm Calm - N/A   Clear
3:55 AM 30.9 °F - 30.0 °F 96% 30.04 in 3.0 mi Calm Calm - N/A   Clear
4:15 AM 30.7 °F - 30.2 °F 98% 30.04 in 3.0 mi Calm Calm - N/A   Clear
4:35 AM 31.1 °F - 30.7 °F 99% 30.05 in 4.0 mi Calm Calm - N/A   Clear
4:55 AM 31.5 °F - 30.7 °F 97% 30.05 in 4.0 mi Calm Calm - N/A   Clear
5:15 AM 32.0 °F - 31.1 °F 96% 30.05 in 5.0 mi Calm Calm - N/A   Clear
5:35 AM 32.0 °F - 31.3 °F 97% 30.06 in 5.0 mi Calm Calm - N/A   Clear
5:55 AM 32.0 °F - 31.5 °F 98% 30.06 in 5.0 mi Calm Calm - N/A   Clear
6:15 AM 32.0 °F - 31.1 °F 96% 30.06 in 5.0 mi Calm Calm - N/A   Clear
6:35 AM 32.5 °F - 30.9 °F 94% 30.06 in 5.0 mi Calm Calm - N/A   Clear
6:55 AM 33.1 °F - 31.6 °F 94% 30.06 in 7.0 mi Calm Calm - N/A   Clear
7:15 AM 33.1 °F - 31.8 °F 95% 30.06 in 5.0 mi Calm Calm - N/A   Clear
7:35 AM 34.7 °F - 32.5 °F 92% 30.07 in 5.0 mi Calm Calm - N/A   Clear
7:55 AM 37.2 °F - 32.7 °F 84% 30.07 in 7.0 mi Calm Calm - N/A   Clear
8:15 AM 39.7 °F 36.5 °F 32.9 °F 77% 30.07 in 7.0 mi South 4.6 mph - N/A   Clear
8:35 AM 40.5 °F 36.5 °F 33.1 °F 75% 30.08 in 7.0 mi SSW 5.8 mph - N/A   Clear
8:55 AM 43.3 °F 40.7 °F 35.6 °F 74% 30.09 in 7.0 mi WSW 4.6 mph - N/A   Scattered Clouds
9:15 AM 44.4 °F 40.5 °F 37.0 °F 75% 30.10 in 7.0 mi WSW 6.9 mph - N/A   Overcast
9:35 AM 44.6 °F 40.7 °F 38.1 °F 78% 30.09 in 5.0 mi SW 6.9 mph - N/A   Haze
9:55 AM 45.3 °F 40.1 °F 39.4 °F 80% 30.10 in 5.0 mi WSW 10.4 mph - N/A   Haze
10:15 AM 44.6 °F 38.4 °F 39.6 °F 82% 30.11 in 4.0 mi WSW 12.7 mph - N/A   Haze
10:35 AM 43.7 °F 38.6 °F 41.4 °F 91% 30.13 in 4.0 mi WSW 9.2 mph 17.3 mph N/A   Overcast
11:00 AM 43.9 °F 38.8 °F 42.1 °F 93% 30.12 in 4.0 mi WSW 9.2 mph - N/A   Overcast
11:15 AM 43.2 °F 37.9 °F 41.7 °F 95% 30.12 in 3.0 mi SW 9.2 mph - N/A   Overcast
11:35 AM 43.2 °F 39.7 °F 41.9 °F 95% 30.11 in 2.5 mi WSW 5.8 mph - N/A   Overcast
11:55 AM 44.6 °F 39.7 °F 41.7 °F 90% 30.11 in 4.0 mi WSW 9.2 mph - N/A   Overcast
12:15 PM 46.0 °F 43.1 °F 41.2 °F 83% 30.11 in 5.0 mi WSW 5.8 mph - N/A   Haze
12:35 PM 47.1 °F - 43.0 °F 86% 30.10 in 7.0 mi SSW 4.6 mph - N/A   Scattered Clouds
12:55 PM 48.2 °F - 40.5 °F 75% 30.10 in 7.0 mi West 5.8 mph - N/A   Clear
1:15 PM 49.3 °F - 39.4 °F 69% 30.09 in 7.0 mi Calm Calm - N/A   Clear
1:35 PM 49.8 °F - 39.7 °F 68% 30.09 in 7.0 mi WSW 4.6 mph - N/A   Clear
1:55 PM 51.1 °F - 41.0 °F 68% 30.09 in 10.0 mi West 3.5 mph - N/A   Clear
2:15 PM 52.0 °F - 41.4 °F 67% 30.10 in 10.0 mi WSW 5.8 mph - N/A   Clear
2:35 PM 51.3 °F - 41.2 °F 68% 30.10 in 10.0 mi SW 6.9 mph - N/A   Scattered Clouds
2:55 PM 52.2 °F - 41.2 °F 66% 30.10 in 10.0 mi WNW 9.2 mph - N/A   Scattered Clouds
3:15 PM 53.1 °F - 38.8 °F 59% 30.11 in 10.0 mi NW 10.4 mph - N/A   Scattered Clouds
3:35 PM 50.9 °F - 38.1 °F 62% 30.12 in 7.0 mi NNW 11.5 mph 17.3 mph N/A   Mostly Cloudy
3:55 PM 48.7 °F - 37.6 °F 65% 30.13 in 4.0 mi NNW 12.7 mph - N/A   Haze
4:15 PM 47.8 °F - 36.0 °F 63% 30.14 in 5.0 mi NW 13.8 mph - N/A   Haze
4:35 PM 46.9 °F - 35.6 °F 65% 30.15 in 4.0 mi NNW 10.4 mph 18.4 mph N/A   Haze
4:55 PM 45.7 °F 40.6 °F 35.2 °F 67% 30.15 in 4.0 mi NNW 10.4 mph - N/A   Haze
5:15 PM 45.1 °F 41.4 °F 35.6 °F 69% 30.16 in 3.0 mi NW 6.9 mph - N/A Rain Light Rain
5:35 PM 44.6 °F 39.2 °F 35.2 °F 70% 30.18 in 3.0 mi NW 10.4 mph 17.3 mph N/A   Haze
5:55 PM 43.9 °F 39.3 °F 35.8 °F 73% 30.18 in 3.0 mi NNW 8.1 mph - N/A   Haze
6:15 PM 43.5 °F 38.9 °F 36.0 °F 75% 30.19 in 2.5 mi NW 8.1 mph - N/A   Haze
6:35 PM 43.2 °F 38.4 °F 36.1 °F 76% 30.20 in 2.5 mi NW 8.1 mph - N/A   Haze
6:55 PM 42.8 °F 37.0 °F 36.5 °F 78% 30.19 in 2.0 mi NNW 10.4 mph 17.3 mph N/A   Haze
7:15 PM 42.6 °F 37.8 °F 36.1 °F 78% 30.21 in 2.0 mi NNW 8.1 mph - N/A   Haze
7:35 PM 42.4 °F 37.5 °F 36.1 °F 78% 30.21 in 2.0 mi NNW 8.1 mph - N/A   Haze
7:55 PM 42.3 °F 36.8 °F 35.8 °F 78% 30.22 in 2.0 mi NNW 9.2 mph - N/A Rain Light Rain
8:15 PM 41.9 °F 38.2 °F 36.0 °F 79% 30.22 in 1.8 mi NNW 5.8 mph - N/A Rain Rain
8:35 PM 41.4 °F 35.7 °F 35.2 °F 79% 30.22 in 2.0 mi North 9.2 mph - N/A   Haze
8:55 PM 41.0 °F 35.2 °F 34.7 °F 78% 30.23 in 2.0 mi NNW 9.2 mph - N/A   Haze
9:15 PM 40.6 °F 34.8 °F 34.3 °F 78% 30.24 in 2.0 mi NNW 9.2 mph - N/A   Haze
9:35 PM 40.3 °F 34.9 °F 34.2 °F 79% 30.25 in 2.0 mi NNW 8.1 mph - N/A   Haze
9:55 PM 39.9 °F 33.4 °F 33.8 °F 79% 30.25 in 2.0 mi NNW 10.4 mph - N/A   Haze
10:15 PM 39.4 °F 32.7 °F 33.1 °F 78% 30.25 in 2.5 mi NNW 10.4 mph - N/A   Haze
10:35 PM 39.4 °F 33.2 °F 32.9 °F 78% 30.26 in 3.0 mi NNW 9.2 mph - N/A   Haze
10:55 PM 39.2 °F 33.0 °F 32.7 °F 78% 30.26 in 4.0 mi NNW 9.2 mph - N/A   Haze
11:15 PM 39.2 °F 33.6 °F 32.9 °F 78% 30.27 in 4.0 mi NNW 8.1 mph - N/A   Haze
11:35 PM 39.2 °F 34.2 °F 32.4 °F 76% 30.26 in 4.0 mi North 6.9 mph - N/A   Haze
11:55 PM 38.8 °F 33.2 °F 32.0 °F 76% 30.26 in 4.0 mi North 8.1 mph - N/A   Haze